Location: Cabeza Gorda
(40.0667°N, 4.9667°W)
Time: 20:17:25
(UTC+00:00)

CENTAUR R/B - Pass Details

Date: 15 January 2026
Orbit: 629 x 1551 km, 63.4° (Epoch: 11 February)

Event Time Altitude Azimuth Distance (km) Brightness Sun altitude
Rises 05:55:19 0° 177° (S) 3,069 5.3 -19.7°
Reaches altitude 10° 05:57:48 10° 164° (SSE) 2,247 4.8 -19.2°
Maximum altitude 06:02:00 26° 108° (ESE) 1,585 4.5 -18.4°
Drops below altitude 10° 06:06:58 10° 54° (NE) 2,690 5.4 -17.5°
Sets 06:10:13 0° 43° (NE) 3,814 6.0 -16.9°
